QFA1104 YSSY-YCFS

Flight info

Callsign QFA1104
Flight time 0h 44m
Altitude 31000
Route OLSEM1/34R OLSEM Y193 BANDA J70 CFS
Aircraft B738/M-SDE2E3FGHIRWXY/LB1

Departure

Time 2026-05-06 11:10
Airport Sydney Kingsford Smith International Airport (YSSY)

Arrival

Time 2026-05-06 11:54
Airport Coffs Harbour Airport (YCFS)
Time Latitude Longitude Altitude Speed Heading
2026-05-06 10:27 -33.93222 151.17669 29 ft 0 kts 71°
2026-05-06 10:55 -33.93223 151.17668 29 ft 2 kts 71°
2026-05-06 10:55 -33.93230 151.17640 29 ft 4 kts 73°
2026-05-06 10:56 -33.93240 151.17612 29 ft 3 kts 49°
2026-05-06 10:56 -33.93253 151.17592 29 ft 4 kts 77°
2026-05-06 10:56 -33.93250 151.17565 29 ft 4 kts 137°
2026-05-06 10:56 -33.93234 151.17554 29 ft 0 kts 168°
2026-05-06 10:59 -33.93240 151.17555 29 ft 5 kts 168°
2026-05-06 10:59 -33.93295 151.17572 29 ft 9 kts 165°
2026-05-06 10:59 -33.93357 151.17586 29 ft 9 kts 170°
2026-05-06 11:00 -33.93431 151.17591 29 ft 13 kts 190°
2026-05-06 11:00 -33.93524 151.17596 29 ft 13 kts 168°
2026-05-06 11:00 -33.93612 151.17620 29 ft 13 kts 163°
2026-05-06 11:00 -33.93705 151.17672 29 ft 16 kts 158°
2026-05-06 11:01 -33.93809 151.17704 29 ft 13 kts 164°
2026-05-06 11:01 -33.93862 151.17757 29 ft 9 kts 137°
2026-05-06 11:01 -33.93933 151.17788 28 ft 13 kts 169°
2026-05-06 11:01 -33.94043 151.17817 28 ft 20 kts 168°
2026-05-06 11:02 -33.94201 151.17856 29 ft 25 kts 167°
2026-05-06 11:02 -33.94363 151.17900 29 ft 20 kts 168°
2026-05-06 11:02 -33.94464 151.17899 29 ft 14 kts 206°
2026-05-06 11:02 -33.94557 151.17890 29 ft 13 kts 167°
2026-05-06 11:03 -33.94648 151.17914 29 ft 14 kts 168°
2026-05-06 11:03 -33.94767 151.17945 29 ft 23 kts 168°
2026-05-06 11:03 -33.94957 151.17994 29 ft 29 kts 167°
2026-05-06 11:03 -33.95086 151.18041 29 ft 14 kts 135°
2026-05-06 11:04 -33.95092 151.18148 29 ft 13 kts 76°
2026-05-06 11:04 -33.95073 151.18254 29 ft 13 kts 78°
2026-05-06 11:04 -33.95053 151.18357 29 ft 12 kts 78°
2026-05-06 11:04 -33.95046 151.18473 29 ft 15 kts 113°
2026-05-06 11:05 -33.95125 151.18554 29 ft 15 kts 139°
2026-05-06 11:05 -33.95217 151.18655 29 ft 21 kts 140°
2026-05-06 11:05 -33.95357 151.18730 29 ft 22 kts 167°
2026-05-06 11:05 -33.95507 151.18770 29 ft 22 kts 167°
2026-05-06 11:06 -33.95653 151.18809 29 ft 21 kts 169°
2026-05-06 11:06 -33.95812 151.18848 29 ft 27 kts 168°
2026-05-06 11:06 -33.96012 151.18900 29 ft 30 kts 167°
2026-05-06 11:06 -33.96210 151.18952 29 ft 28 kts 168°
2026-05-06 11:07 -33.96393 151.18998 29 ft 26 kts 168°
2026-05-06 11:07 -33.96564 151.19044 29 ft 24 kts 168°
2026-05-06 11:07 -33.96724 151.19072 29 ft 23 kts 184°
2026-05-06 11:07 -33.96878 151.19080 29 ft 22 kts 167°
2026-05-06 11:08 -33.97025 151.19118 29 ft 21 kts 168°
2026-05-06 11:08 -33.97120 151.19170 29 ft 10 kts 119°
2026-05-06 11:08 -33.97117 151.19251 28 ft 11 kts 76°
2026-05-06 11:08 -33.97094 151.19348 25 ft 11 kts 69°
2026-05-06 11:09 -33.97026 151.19363 24 ft 8 kts 347°
2026-05-06 11:09 -33.96889 151.19327 25 ft 53 kts 347°
2026-05-06 11:09 -33.96235 151.19158 28 ft 135 kts 348°
2026-05-06 11:09 -33.95174 151.18875 479 ft 167 kts 347°
2026-05-06 11:10 -33.93972 151.18710 1271 ft 189 kts 11°
2026-05-06 11:10 -33.92666 151.19336 1600 ft 216 kts 26°
2026-05-06 11:10 -33.91400 151.20391 2171 ft 227 kts 34°
2026-05-06 11:10 -33.90107 151.21559 2779 ft 239 kts 33°
2026-05-06 11:11 -33.88701 151.22805 3200 ft 260 kts 33°
2026-05-06 11:11 -33.87215 151.24111 4070 ft 267 kts 33°
2026-05-06 11:11 -33.85705 151.25430 5090 ft 270 kts 33°
2026-05-06 11:11 -33.84200 151.26824 6049 ft 277 kts 42°
2026-05-06 11:12 -33.83186 151.28806 6982 ft 285 kts 66°
2026-05-06 11:12 -33.82528 151.31056 7872 ft 290 kts 69°
2026-05-06 11:12 -33.81907 151.33387 8761 ft 295 kts 70°
2026-05-06 11:12 -33.81273 151.35757 9658 ft 299 kts 66°
2026-05-06 11:13 -33.80195 151.37888 10401 ft 304 kts 48°
2026-05-06 11:13 -33.78796 151.39944 10629 ft 331 kts 47°
2026-05-06 11:13 -33.77256 151.42157 10929 ft 353 kts 47°
2026-05-06 11:13 -33.75662 151.44462 11569 ft 362 kts 47°
2026-05-06 11:14 -33.74054 151.46816 12366 ft 367 kts 47°
2026-05-06 11:14 -33.72429 151.49211 13182 ft 372 kts 48°
2026-05-06 11:14 -33.70786 151.51641 13999 ft 377 kts 48°
2026-05-06 11:14 -33.69129 151.54096 14764 ft 382 kts 48°
2026-05-06 11:15 -33.67446 151.56586 15604 ft 385 kts 48°
2026-05-06 11:15 -33.65750 151.59091 16430 ft 389 kts 47°
2026-05-06 11:15 -33.63858 151.61403 17185 ft 389 kts 32°
2026-05-06 11:15 -33.61586 151.63174 18002 ft 390 kts 28°
2026-05-06 11:16 -33.59274 151.64925 18710 ft 396 kts 29°
2026-05-06 11:16 -33.56946 151.66720 19387 ft 400 kts 29°
2026-05-06 11:16 -33.54604 151.68559 20078 ft 403 kts 30°
2026-05-06 11:16 -33.52248 151.70420 20766 ft 407 kts 29°
2026-05-06 11:17 -33.49854 151.72170 21392 ft 408 kts 22°
2026-05-06 11:17 -33.47225 151.73441 22010 ft 407 kts 12°
2026-05-06 11:17 -33.44476 151.74283 22662 ft 408 kts
2026-05-06 11:17 -33.41708 151.75097 23302 ft 412 kts
2026-05-06 11:18 -33.38912 151.75952 23866 ft 416 kts
2026-05-06 11:18 -33.36098 151.76838 24383 ft 420 kts
2026-05-06 11:18 -33.33267 151.77748 24897 ft 422 kts
2026-05-06 11:18 -33.30414 151.78671 25385 ft 426 kts
2026-05-06 11:19 -33.27540 151.79602 25871 ft 429 kts
2026-05-06 11:19 -33.24659 151.80535 26363 ft 431 kts
2026-05-06 11:19 -33.22728 151.81160 26684 ft 433 kts
2026-05-06 11:19 -33.19818 151.82100 27159 ft 436 kts
2026-05-06 11:20 -33.15888 151.83368 27908 ft 436 kts
2026-05-06 11:20 -33.13013 151.84297 28613 ft 432 kts
2026-05-06 11:20 -33.11053 151.84930 29078 ft 430 kts
2026-05-06 11:20 -33.08188 151.85855 29770 ft 427 kts
2026-05-06 11:21 -33.05310 151.86781 30357 ft 426 kts
2026-05-06 11:21 -33.02451 151.87698 30857 ft 425 kts
2026-05-06 11:21 -32.99592 151.88613 31056 ft 427 kts
2026-05-06 11:22 -32.93876 151.90444 31068 ft 424 kts
2026-05-06 11:22 -32.88174 151.92267 31054 ft 424 kts
2026-05-06 11:23 -32.82471 151.94089 31066 ft 425 kts
2026-05-06 11:23 -32.76764 151.95911 31074 ft 425 kts
2026-05-06 11:24 -32.71057 151.97730 31075 ft 424 kts
2026-05-06 11:24 -32.65354 151.99547 31076 ft 423 kts
2026-05-06 11:25 -32.59659 152.01357 31075 ft 423 kts
2026-05-06 11:25 -32.54017 152.03149 31074 ft 422 kts
2026-05-06 11:26 -32.48333 152.04951 31076 ft 422 kts
2026-05-06 11:26 -32.42661 152.06747 31061 ft 421 kts
2026-05-06 11:27 -32.37000 152.08538 31090 ft 421 kts
2026-05-06 11:27 -32.31336 152.10326 31093 ft 422 kts
2026-05-06 11:28 -32.25644 152.12121 31077 ft 423 kts
2026-05-06 11:28 -32.19965 152.13911 31078 ft 421 kts
2026-05-06 11:28 -32.17164 152.14797 31058 ft 410 kts
2026-05-06 11:29 -32.14431 152.15663 30784 ft 403 kts
2026-05-06 11:29 -32.11755 152.16509 30471 ft 395 kts
2026-05-06 11:29 -32.09109 152.17341 30104 ft 391 kts
2026-05-06 11:29 -32.06485 152.18164 29671 ft 387 kts
2026-05-06 11:30 -32.03891 152.18977 29271 ft 382 kts
2026-05-06 11:30 -32.01343 152.19775 28871 ft 378 kts
2026-05-06 11:30 -31.98809 152.20568 28502 ft 374 kts
2026-05-06 11:30 -31.96332 152.21343 28103 ft 371 kts
2026-05-06 11:31 -31.93837 152.22121 27730 ft 373 kts
2026-05-06 11:31 -31.91299 152.22908 27355 ft 381 kts
2026-05-06 11:31 -31.88721 152.23709 26953 ft 382 kts
2026-05-06 11:31 -31.86160 152.24510 26557 ft 378 kts
2026-05-06 11:32 -31.83629 152.25305 26168 ft 374 kts
2026-05-06 11:32 -31.81118 152.26092 25790 ft 371 kts
2026-05-06 11:32 -31.78638 152.26868 25415 ft 367 kts
2026-05-06 11:32 -31.76175 152.27637 25030 ft 364 kts
2026-05-06 11:33 -31.73737 152.28398 24661 ft 361 kts
2026-05-06 11:33 -31.71317 152.29151 24302 ft 359 kts
2026-05-06 11:33 -31.68904 152.29902 23922 ft 357 kts
2026-05-06 11:33 -31.66504 152.30648 23517 ft 355 kts
2026-05-06 11:34 -31.64122 152.31388 23106 ft 353 kts
2026-05-06 11:34 -31.61764 152.32121 22719 ft 349 kts
2026-05-06 11:34 -31.59454 152.32839 22360 ft 346 kts
2026-05-06 11:34 -31.57097 152.33570 21989 ft 346 kts
2026-05-06 11:35 -31.54799 152.34282 21619 ft 345 kts
2026-05-06 11:35 -31.52468 152.35002 21273 ft 349 kts
2026-05-06 11:35 -31.50098 152.35733 20909 ft 354 kts
2026-05-06 11:35 -31.47720 152.36469 20541 ft 352 kts
2026-05-06 11:36 -31.45369 152.37199 20177 ft 348 kts
2026-05-06 11:36 -31.43045 152.37921 19815 ft 345 kts
2026-05-06 11:36 -31.40730 152.38638 19453 ft 343 kts
2026-05-06 11:36 -31.38470 152.39337 19007 ft 344 kts 10°
2026-05-06 11:37 -31.36165 152.40050 18704 ft 339 kts 10°
2026-05-06 11:37 -31.33898 152.40751 18355 ft 336 kts 10°
2026-05-06 11:37 -31.31630 152.41451 17949 ft 334 kts 10°
2026-05-06 11:37 -31.29408 152.42137 17576 ft 330 kts
2026-05-06 11:38 -31.27196 152.42820 17237 ft 327 kts
2026-05-06 11:38 -31.25055 152.43480 16898 ft 325 kts 10°
2026-05-06 11:38 -31.22874 152.44153 16546 ft 323 kts 10°
2026-05-06 11:38 -31.20710 152.44819 16207 ft 320 kts 10°
2026-05-06 11:39 -31.18588 152.45472 15877 ft 320 kts 10°
2026-05-06 11:39 -31.16426 152.46136 15542 ft 322 kts 10°
2026-05-06 11:39 -31.14248 152.46804 15201 ft 324 kts 10°
2026-05-06 11:39 -31.12068 152.47473 14857 ft 325 kts 10°
2026-05-06 11:40 -31.09886 152.48144 14505 ft 323 kts 10°
2026-05-06 11:40 -31.07733 152.48807 14165 ft 320 kts 10°
2026-05-06 11:40 -31.05575 152.49471 13818 ft 317 kts 10°
2026-05-06 11:40 -31.03452 152.50122 13434 ft 315 kts 10°
2026-05-06 11:41 -31.01339 152.50771 13084 ft 312 kts 10°
2026-05-06 11:41 -30.99250 152.51412 12737 ft 309 kts 10°
2026-05-06 11:41 -30.97179 152.52047 12404 ft 306 kts 10°
2026-05-06 11:41 -30.95132 152.52674 12058 ft 303 kts 10°
2026-05-06 11:42 -30.93098 152.53296 11737 ft 300 kts 10°
2026-05-06 11:42 -30.91082 152.53913 11415 ft 298 kts 10°
2026-05-06 11:42 -30.89083 152.54525 11096 ft 296 kts 10°
2026-05-06 11:42 -30.87098 152.55131 10728 ft 296 kts 11°
2026-05-06 11:43 -30.85105 152.55740 10342 ft 296 kts 11°
2026-05-06 11:43 -30.83157 152.56335 10167 ft 289 kts 11°
2026-05-06 11:43 -30.81241 152.56925 10020 ft 281 kts 12°
2026-05-06 11:44 -30.78126 152.59629 9447 ft 286 kts 45°
2026-05-06 11:44 -30.76797 152.61376 9166 ft 292 kts 45°
2026-05-06 11:44 -30.75444 152.63166 8861 ft 295 kts 45°
2026-05-06 11:44 -30.74097 152.64947 8550 ft 292 kts 45°
2026-05-06 11:45 -30.72755 152.66714 8264 ft 290 kts 45°
2026-05-06 11:45 -30.71424 152.68458 7956 ft 288 kts 45°
2026-05-06 11:45 -30.70099 152.70190 7674 ft 286 kts 45°
2026-05-06 11:45 -30.68777 152.71915 7386 ft 284 kts 45°
2026-05-06 11:46 -30.67464 152.73625 7092 ft 282 kts 45°
2026-05-06 11:46 -30.66160 152.75323 6825 ft 281 kts 45°
2026-05-06 11:46 -30.64860 152.77013 6533 ft 279 kts 45°
2026-05-06 11:46 -30.63586 152.78668 6240 ft 278 kts 45°
2026-05-06 11:47 -30.62312 152.80324 6080 ft 271 kts 45°
2026-05-06 11:47 -30.61071 152.81936 5954 ft 264 kts 45°
2026-05-06 11:47 -30.59863 152.83505 5849 ft 256 kts 45°
2026-05-06 11:47 -30.58689 152.85028 5727 ft 249 kts 45°
2026-05-06 11:48 -30.57549 152.86505 5622 ft 242 kts 45°
2026-05-06 11:48 -30.56442 152.87952 5520 ft 236 kts 44°
2026-05-06 11:48 -30.55294 152.89300 5313 ft 236 kts 40°
2026-05-06 11:48 -30.54074 152.90583 5032 ft 238 kts 38°
2026-05-06 11:49 -30.52819 152.91844 4759 ft 239 kts 38°
2026-05-06 11:49 -30.51552 152.93101 4481 ft 240 kts 37°
2026-05-06 11:49 -30.50284 152.94355 4221 ft 240 kts 38°
2026-05-06 11:49 -30.49013 152.95613 3917 ft 241 kts 38°
2026-05-06 11:50 -30.47752 152.96862 3594 ft 239 kts 38°
2026-05-06 11:50 -30.46520 152.98083 3283 ft 235 kts 38°
2026-05-06 11:50 -30.45296 152.99297 2995 ft 226 kts 38°
2026-05-06 11:50 -30.44138 153.00446 2692 ft 213 kts 38°
2026-05-06 11:51 -30.43053 153.01522 2408 ft 194 kts 38°
2026-05-06 11:51 -30.42062 153.02504 2155 ft 181 kts 37°
2026-05-06 11:51 -30.41139 153.03418 1921 ft 169 kts 38°
2026-05-06 11:51 -30.40277 153.04273 1727 ft 156 kts 38°
2026-05-06 11:52 -30.39486 153.05057 1520 ft 146 kts 37°
2026-05-06 11:52 -30.38716 153.05819 1334 ft 147 kts 39°
2026-05-06 11:52 -30.37929 153.06598 1136 ft 150 kts 39°
2026-05-06 11:52 -30.37137 153.07383 935 ft 150 kts 39°
2026-05-06 11:53 -30.36351 153.08164 732 ft 148 kts 39°
2026-05-06 11:53 -30.35578 153.08930 526 ft 145 kts 39°
2026-05-06 11:53 -30.34817 153.09681 339 ft 143 kts 39°
2026-05-06 11:53 -30.34059 153.10438 132 ft 145 kts 39°
2026-05-06 11:54 -30.33325 153.11176 27 ft 133 kts 40°
2026-05-06 11:54 -30.32747 153.11736 26 ft 78 kts 40°
2026-05-06 11:54 -30.32526 153.11910 26 ft 6 kts 340°
2026-05-06 11:54 -30.32496 153.11873 32 ft 0 kts 308°
2026-05-06 11:55 -30.32488 153.11861 30 ft 6 kts 308°
2026-05-06 11:55 -30.32454 153.11808 26 ft 10 kts 308°
2026-05-06 11:55 -30.32410 153.11748 26 ft 10 kts 310°
2026-05-06 11:55 -30.32369 153.11689 29 ft 8 kts 300°
2026-05-06 11:56 -30.32379 153.11639 29 ft 6 kts 229°
2026-05-06 11:56 -30.32385 153.11611 26 ft 4 kts 288°
2026-05-06 11:56 -30.32368 153.11598 28 ft 3 kts 339°
2026-05-06 11:56 -30.32356 153.11593 28 ft 0 kts 339°